Wind_Speed
24 25 25 24 25 25 25 25 25 23 24 25 25 25 24 24 24 24 24 24 23 22 23 25 26 26 26 26 27 28 29 30 32 32 31 31 31 32 32 33 33 34 34 34
25 25 26 25 25 25 25 24 24 24 24 25 25 25 24 24 24 23 23 24 23 23 24 25 25 25 25 26 26 27 28 29 30 31 31 30 29 29 30 31 31 32 32 33
25 25 26 25 23 24 24 24 25 24 24 24 24 24 24 25 25 24 23 23 23 23 23 24 25 25 24 25 25 26 27 27 27 29 29 28 28 29 29 28 29 30 30 31
26 26 26 24 24 25 25 24 25 24 24 24 24 23 23 25 24 24 24 23 23 23 24 24 24 24 23 23 24 24 24 24 24 25 26 26 26 26 27 28 28 28 28 29
26 26 26 25 24 24 24 24 24 24 24 24 24 24 23 24 25 25 23 23 23 24 24 24 23 23 22 22 22 22 22 21 21 22 22 23 24 24 25 26 26 26 26 27
25 26 26 25 25 25 25 24 24 24 23 24 25 24 23 24 24 23 23 22 22 23 23 23 22 21 21 20 20 20 20 19 19 19 19 20 22 23 23 24 24 24 25 26
25 26 25 25 25 25 24 24 24 24 24 24 25 25 24 24 24 23 22 21 21 21 21 21 21 19 19 19 18 18 17 18 18 18 19 19 19 21 22 22 23 23 24 26
25 25 25 24 25 24 24 24 24 24 24 25 25 25 24 25 25 23 23 21 21 21 21 21 20 19 18 18 17 16 16 17 17 17 18 19 19 19 20 21 22 22 23 24
25 24 24 24 24 25 25 24 24 24 25 25 25 25 25 24 24 23 23 22 21 21 21 20 19 19 18 18 17 16 16 17 17 17 17 18 19 20 20 20 21 21 22 23
25 23 23 24 25 25 26 25 24 25 25 25 25 25 25 25 24 24 23 23 21 21 20 20 20 19 18 17 16 16 16 17 16 17 18 18 19 19 19 20 20 20 21 22
26 24 24 24 25 26 26 26 25 25 25 26 26 25 26 25 24 23 22 22 21 20 20 20 20 19 19 18 17 17 17 17 17 18 19 19 20 19 20 20 20 21 22 22
25 25 26 26 26 26 25 25 26 26 25 25 25 25 25 24 23 22 22 22 21 20 20 19 19 19 19 18 17 17 18 18 18 18 19 19 19 19 20 20 20 21 22 22
26 26 26 26 26 26 25 25 25 25 25 25 24 23 23 23 22 22 22 21 21 20 20 19 18 18 18 18 18 18 18 19 19 19 18 19 18 19 19 19 20 20 20 20
26 26 25 25 25 25 25 25 25 25 25 25 24 24 23 22 22 21 21 21 20 20 19 18 17 17 17 18 18 18 18 19 19 18 18 18 18 18 19 19 19 20 20 20
26 26 25 24 25 25 26 25 25 24 24 23 24 24 23 22 21 21 20 20 20 19 18 17 17 16 17 17 17 18 18 19 18 17 17 17 18 18 18 19 19 19 18 17
26 26 25 24 24 25 25 25 24 23 22 22 23 23 22 21 21 20 20 19 19 18 18 17 17 17 16 16 17 17 17 17 16 16 17 16 16 17 17 17 16 16 15 14
25 25 24 24 24 23 24 24 23 22 22 21 21 21 20 20 19 19 18 18 18 17 17 17 17 17 16 16 17 16 16 16 16 16 16 16 16 16 15 14 14 14 13 13
25 24 24 24 24 24 23 23 23 22 21 20 20 20 19 19 18 18 18 18 18 17 16 16 17 16 16 16 15 15 15 15 15 15 15 14 14 14 14 14 13 13 12 11
24 24 24 24 24 24 23 22 21 21 20 20 19 18 18 18 17 17 17 17 17 17 17 17 16 16 16 15 15 15 15 15 15 14 13 13 13 13 13 13 13 12 11 11
24 24 24 24 23 23 21 20 20 19 19 19 18 18 18 18 17 17 16 16 16 16 16 16 16 15 15 15 15 15 14 14 13 13 13 13 13 13 13 13 12 11 11 11
24 24 23 23 22 21 20 20 20 19 19 18 17 17 18 18 17 17 17 16 16 16 15 15 15 14 14 14 14 14 13 13 13 13 13 13 13 13 13 13 12 12 11 11
23 22 22 21 20 19 20 20 19 19 18 17 17 17 17 17 17 17 17 16 16 15 15 15 14 14 14 14 14 13 13 13 12 12 12 13 13 12 13 13 12 12 11 11
22 21 20 19 19 19 19 19 19 18 18 17 17 17 17 17 16 16 16 16 15 15 15 14 14 14 14 13 13 13 12 12 12 12 12 12 12 12 12 12 11 10 10 10
21 21 19 19 19 19 18 18 18 18 17 17 17 16 16 16 15 15 15 14 14 14 14 14 14 13 13 13 13 12 12 11 11 12 12 12 11 11 10 10 9 9 9 9
20 20 19 19 19 19 19 18 18 18 17 17 16 15 15 15 14 14 14 13 13 12 12 12 12 12 12 12 12 11 11 11 11 11 11 11 11 11 10 9 9 9 9 9
20 19 19 19 19 19 19 19 19 18 17 17 16 14 14 13 13 13 13 12 12 11 11 11 10 10 10 11 11 11 11 11 11 11 11 11 12 11 10 10 10 9 9 9
20 20 19 19 19 19 19 18 18 18 17 16 15 14 14 13 13 13 12 12 11 11 10 10 10 10 10 10 10 10 10 10 10 10 11 11 11 11 10 10 10 9 9 8
Wind_Direction
290 289 289 290 289 288 289 289 289 289 290 291 291 291 290 289 289 292 294 293 288 287 288 291 291 286 285 280 278 275 272 270 268 267 266 263 261 260 259 258 257 257 258 259
289 288 287 287 287 288 289 288 288 288 289 290 292 290 288 288 288 290 294 296 293 290 290 292 292 289 284 283 280 276 275 273 271 268 267 265 263 261 260 261 259 258 259 259
290 289 290 288 288 289 289 288 287 289 290 291 291 291 288 286 286 288 292 295 294 293 294 291 291 290 286 286 284 279 278 277 273 270 269 268 266 264 263 264 263 263 263 262
291 289 288 291 289 288 288 287 287 287 289 291 292 291 289 287 287 288 291 292 294 293 293 294 290 288 288 288 287 283 280 277 274 270 269 269 269 266 264 265 264 264 264 265
292 290 290 288 289 290 289 286 286 288 289 291 292 291 291 289 288 291 292 294 294 295 294 292 290 288 288 289 288 286 282 276 272 272 270 269 267 267 268 267 266 265 266 267
293 291 292 291 290 290 289 287 287 288 290 291 292 292 292 291 290 291 293 294 294 295 292 290 289 287 288 292 292 289 284 278 275 273 272 271 269 267 267 270 272 270 268 269
294 292 292 292 292 291 291 291 288 287 289 292 294 295 295 293 293 291 292 293 294 295 295 293 290 288 288 291 293 290 286 283 279 277 276 275 273 271 271 273 272 271 270 271
296 293 294 293 292 292 292 290 288 287 288 291 293 295 296 295 295 293 290 290 294 294 294 293 292 291 290 292 293 290 288 285 284 282 278 277 277 276 274 274 274 272 271 273
298 295 293 292 291 291 291 290 289 287 287 289 292 296 296 295 293 292 290 288 292 294 294 293 292 290 291 293 292 289 289 288 287 284 280 279 279 279 278 276 274 272 273 274
299 297 291 290 291 291 291 290 290 289 288 289 291 294 297 296 292 290 290 289 290 291 292 292 290 289 290 291 290 290 290 288 288 286 284 283 283 283 282 279 278 276 274 276
299 297 290 289 290 291 291 290 290 290 289 290 291 292 295 294 292 289 288 288 287 290 291 290 288 287 287 287 286 287 288 287 288 287 287 286 285 283 281 281 280 280 279 280
300 297 291 289 290 291 291 291 291 290 290 290 291 291 293 292 290 288 286 287 286 288 290 289 286 284 284 285 284 285 288 289 289 289 288 287 285 284 285 284 284 283 283 282
298 296 293 291 290 290 291 292 292 291 291 291 290 290 292 291 288 287 286 286 285 286 289 289 287 284 282 283 282 281 284 288 289 290 288 286 285 285 286 287 287 287 286 282
295 295 293 292 289 288 290 292 292 291 291 291 289 290 290 288 285 284 285 285 285 286 287 287 287 284 282 281 281 282 284 287 289 290 289 288 287 287 287 287 286 286 286 282
294 293 292 293 290 289 290 292 293 292 292 292 291 290 289 286 283 282 282 282 282 282 284 285 286 285 282 283 283 281 283 285 287 288 290 290 289 288 288 288 288 285 282 280
293 293 292 293 294 292 291 291 292 292 292 293 293 292 290 286 282 280 279 279 279 279 280 281 282 284 283 283 285 285 285 286 286 287 289 289 288 289 288 288 289 285 280 278
294 294 293 292 294 294 292 292 292 291 293 294 293 293 290 285 281 278 276 277 277 277 277 277 278 281 282 283 286 286 286 287 289 289 288 288 289 291 291 289 289 284 278 275
294 293 293 292 292 293 294 295 293 292 293 293 292 292 289 284 280 279 277 276 276 277 276 276 277 278 280 283 285 285 286 287 288 287 287 289 290 290 290 291 289 283 275 273
292 292 293 293 292 292 294 296 294 293 293 293 291 289 288 286 283 281 278 277 276 276 275 275 275 276 278 280 282 284 286 286 286 284 285 288 290 290 291 292 289 282 276 276
291 291 291 292 292 292 293 295 295 295 294 293 291 287 285 286 285 282 280 278 278 276 274 274 273 273 274 276 279 282 283 284 283 281 283 287 290 292 292 290 287 284 280 279
291 291 292 292 292 291 292 295 295 296 295 293 291 287 283 283 284 282 279 278 277 275 274 274 273 272 273 275 278 280 280 281 281 280 281 285 288 291 292 291 287 281 279 280
293 292 291 290 290 289 291 294 296 296 296 293 290 287 284 284 285 282 277 276 277 277 276 274 272 271 273 274 276 277 277 278 278 279 280 283 286 288 290 292 288 281 278 277
294 293 290 289 289 289 291 293 295 296 295 293 291 288 284 284 284 281 278 277 277 278 276 273 272 273 273 273 274 275 275 276 277 277 279 281 284 287 290 290 285 280 276 272
292 290 288 288 289 289 291 293 295 296 294 292 291 286 284 284 283 281 279 278 278 278 275 273 273 273 273 271 271 272 275 276 277 278 278 280 284 288 289 287 283 279 275 270
287 286 286 286 286 287 288 290 293 294 294 293 290 286 283 282 281 279 278 277 277 276 275 274 274 275 274 272 269 268 271 273 276 279 281 283 284 284 282 280 277 277 274 267
283 283 285 287 288 288 288 288 290 291 293 292 289 284 282 281 279 277 275 275 275 273 273 274 275 276 275 271 267 265 268 272 276 279 283 287 285 281 278 274 275 278 274 266
284 285 286 287 289 290 288 287 288 289 290 288 285 281 278 278 276 273 271 270 269 268 270 272 273 274 275 272 269 266 268 273 277 281 286 288 285 279 274 269 271 273 268 260
Height
5601 5599 5598 5596 5595 5593 5591 5589 5588 5588 5586 5585 5583 5581 5579 5577 5575 5574 5572 5569 5567 5565 5563 5561 5559 5557 5555 5554 5552 5551 5551 5550 5549 5549 5548 5548 5549 5550 5551 5553 5554 5555 5557 5559
5595 5593 5591 5590 5589 5587 5586 5584 5582 5581 5581 5579 5577 5575 5573 5571 5570 5568 5566 5564 5562 5559 5557 5555 5553 5551 5549 5547 5545 5544 5544 5543 5542 5541 5540 5540 5541 5542 5543 5545 5546 5547 5548 5550
5588 5587 5584 5584 5585 5582 5580 5579 5577 5576 5576 5573 5571 5569 5567 5565 5564 5562 5560 5558 5556 5553 5551 5548 5546 5544 5542 5540 5539 5537 5536 5535 5534 5534 5533 5534 5534 5535 5536 5537 5538 5539 5540 5541
5581 5581 5579 5582 5577 5576 5574 5573 5571 5570 5569 5567 5565 5563 5561 5559 5557 5556 5554 5552 5550 5547 5545 5542 5540 5538 5536 5534 5532 5531 5529 5528 5528 5527 5527 5527 5528 5528 5529 5530 5531 5531 5533 5533
5574 5573 5572 5573 5571 5569 5567 5567 5565 5564 5563 5561 5559 5557 5556 5553 5552 5550 5547 5545 5543 5540 5538 5536 5534 5532 5530 5528 5527 5525 5523 5522 5522 5521 5521 5521 5522 5522 5522 5523 5524 5524 5525 5525
5568 5566 5566 5567 5565 5562 5561 5561 5559 5557 5556 5554 5552 5552 5551 5548 5546 5544 5541 5539 5536 5534 5533 5530 5528 5526 5525 5523 5521 5519 5518 5517 5516 5516 5516 5515 5516 5516 5516 5516 5516 5517 5517 5518
5562 5560 5559 5560 5558 5556 5556 5555 5552 5550 5549 5547 5546 5545 5543 5541 5539 5537 5535 5533 5530 5529 5527 5525 5523 5521 5519 5518 5516 5514 5513 5512 5511 5511 5510 5510 5510 5510 5510 5510 5510 5510 5511 5511
5556 5554 5556 5553 5551 5550 5549 5547 5545 5544 5543 5541 5540 5538 5536 5534 5532 5531 5529 5527 5525 5523 5522 5520 5518 5516 5514 5513 5511 5510 5509 5508 5507 5506 5506 5505 5504 5504 5504 5504 5504 5504 5504 5504
5552 5552 5548 5546 5544 5543 5542 5541 5539 5538 5536 5535 5533 5532 5530 5528 5526 5525 5523 5521 5519 5518 5516 5514 5513 5511 5510 5508 5507 5505 5504 5503 5502 5502 5501 5500 5500 5499 5498 5498 5498 5498 5498 5497
5546 5545 5542 5540 5538 5536 5535 5534 5532 5531 5530 5528 5527 5525 5523 5521 5520 5518 5517 5515 5514 5512 5511 5509 5507 5506 5504 5503 5502 5501 5500 5499 5498 5497 5496 5495 5494 5493 5493 5492 5492 5492 5491 5491
5540 5539 5536 5534 5532 5530 5529 5527 5526 5524 5523 5521 5520 5518 5516 5514 5513 5511 5510 5509 5508 5506 5505 5503 5502 5501 5499 5498 5497 5496 5495 5494 5493 5492 5491 5489 5488 5487 5487 5486 5486 5485 5485 5484
5535 5532 5529 5528 5526 5524 5522 5521 5519 5517 5516 5514 5512 5511 5509 5508 5506 5505 5504 5503 5501 5500 5499 5498 5497 5495 5494 5493 5492 5492 5491 5489 5488 5487 5485 5484 5483 5482 5481 5480 5479 5478 5478 5477
5528 5525 5522 5520 5519 5517 5515 5514 5512 5510 5509 5507 5505 5504 5502 5501 5499 5498 5497 5496 5495 5494 5493 5492 5491 5490 5489 5488 5487 5486 5486 5485 5483 5481 5480 5479 5477 5477 5476 5475 5473 5473 5472 5471
5520 5518 5516 5514 5512 5510 5508 5507 5505 5504 5502 5500 5499 5497 5495 5494 5493 5492 5491 5490 5489 5488 5487 5486 5485 5484 5484 5483 5482 5481 5480 5479 5478 5476 5475 5474 5472 5472 5471 5470 5469 5467 5466 5466
5514 5511 5509 5507 5505 5503 5502 5500 5499 5497 5495 5494 5492 5490 5488 5487 5486 5485 5484 5483 5483 5482 5481 5481 5480 5479 5478 5478 5477 5476 5475 5474 5473 5471 5470 5469 5468 5467 5466 5464 5463 5462 5461 5461
5507 5505 5503 5501 5499 5497 5495 5494 5492 5490 5489 5487 5485 5483 5481 5480 5479 5478 5477 5477 5476 5476 5476 5475 5475 5474 5473 5473 5472 5471 5470 5469 5467 5466 5465 5464 5463 5462 5461 5459 5458 5457 5457 5456
5500 5499 5497 5495 5493 5491 5489 5487 5485 5484 5482 5480 5479 5477 5475 5474 5473 5472 5471 5471 5471 5470 5470 5470 5470 5469 5468 5468 5467 5466 5465 5464 5463 5462 5461 5460 5458 5457 5456 5455 5454 5453 5453 5453
5494 5492 5490 5489 5487 5485 5483 5481 5479 5478 5476 5474 5473 5471 5469 5468 5467 5466 5466 5465 5465 5465 5465 5464 5464 5464 5463 5463 5462 5461 5460 5459 5458 5457 5457 5456 5455 5454 5453 5451 5450 5450 5449 5449
5487 5485 5484 5482 5480 5478 5477 5475 5473 5472 5470 5469 5467 5466 5464 5463 5462 5461 5461 5461 5460 5460 5460 5459 5459 5459 5459 5458 5458 5457 5456 5455 5454 5454 5453 5452 5451 5450 5449 5448 5447 5446 5446 5446
5481 5479 5477 5476 5474 5472 5471 5469 5467 5466 5464 5463 5462 5460 5459 5458 5457 5457 5456 5456 5455 5455 5455 5454 5454 5454 5454 5453 5453 5452 5452 5451 5450 5450 5449 5449 5448 5447 5446 5444 5444 5443 5442 5442
5475 5473 5471 5469 5468 5466 5465 5464 5462 5460 5459 5458 5456 5455 5454 5453 5452 5452 5451 5451 5451 5450 5450 5450 5449 5449 5449 5449 5448 5448 5447 5447 5446 5446 5445 5445 5444 5443 5442 5441 5440 5439 5439 5439
5468 5466 5465 5463 5462 5461 5460 5458 5457 5455 5454 5452 5451 5450 5449 5448 5447 5447 5446 5446 5446 5446 5445 5445 5445 5445 5445 5444 5444 5443 5443 5443 5442 5442 5442 5441 5440 5439 5438 5437 5436 5436 5435 5435
5462 5460 5459 5458 5456 5455 5454 5452 5451 5450 5448 5447 5446 5445 5444 5443 5443 5442 5442 5441 5441 5441 5441 5441 5441 5440 5440 5440 5439 5439 5439 5439 5438 5438 5438 5437 5436 5436 5435 5434 5433 5432 5432 5432
5456 5454 5453 5452 5451 5450 5448 5447 5446 5444 5443 5442 5441 5440 5439 5438 5438 5437 5437 5437 5436 5436 5436 5436 5436 5436 5435 5435 5435 5435 5435 5435 5435 5434 5434 5433 5433 5432 5431 5430 5430 5429 5429 5429
5450 5449 5448 5446 5445 5444 5443 5442 5440 5439 5438 5437 5436 5435 5434 5434 5434 5433 5433 5432 5432 5432 5432 5432 5432 5431 5431 5431 5431 5431 5431 5431 5431 5431 5430 5430 5429 5429 5428 5427 5427 5427 5427 5427
5445 5443 5442 5441 5440 5438 5437 5436 5435 5434 5433 5432 5431 5430 5430 5429 5429 5429 5429 5429 5428 5428 5428 5428 5428 5428 5427 5427 5427 5428 5428 5428 5427 5427 5426 5426 5425 5425 5425 5425 5425 5424 5424 5425
5439 5438 5437 5436 5434 5433 5432 5431 5430 5429 5428 5427 5426 5426 5426 5425 5425 5425 5425 5425 5425 5425 5425 5425 5425 5424 5424 5424 5424 5424 5424 5424 5424 5423 5423 5422 5422 5422 5421 5421 5422 5422 5422 5422